| time (UTC) | temp F | wind direction | speed MPH | gust MPH | rain 1hr in | rain 24hr in | rain mn in | humidity % | barometer mb |
| 20260508080504 | 45 | 337 | 0.0 | 2.0 | 0.00 | 0.07 | 0.00 | 95 | 1013.5 |
| 20260508080003 | 45 | 6 | 1.0 | 3.0 | 0.00 | 0.07 | 0.00 | 94 | 1013.4 |
| 20260508075004 | 45 | 3 | 1.0 | 2.0 | 0.00 | 0.07 | 0.00 | 94 | 1013.2 |
| 20260508074503 | 45 | 2 | 0.0 | 2.0 | 0.00 | 0.07 | 0.00 | 94 | 1013.1 |
| 20260508074004 | 45 | 354 | 0.0 | 2.0 | 0.00 | 0.07 | 0.00 | 94 | 1013.1 |
| 20260508073503 | 46 | 354 | 0.0 | 2.0 | 0.00 | 0.07 | 0.00 | 94 | 1013.0 |
| 20260508073003 | 46 | 30 | 0.0 | 2.0 | 0.00 | 0.07 | 0.00 | 94 | 1012.9 |
| 20260508072003 | 46 | 12 | 0.0 | 2.0 | 0.00 | 0.07 | 0.00 | 94 | 1012.7 |
| 20260508071504 | 46 | 9 | 0.0 | 2.0 | 0.00 | 0.07 | 0.00 | 94 | 1012.6 |
| 20260508071003 | 46 | 16 | 0.0 | 2.0 | 0.00 | 0.07 | 0.00 | 94 | 1012.7 |
| 20260508070503 | 46 | 355 | 0.0 | 2.0 | 0.00 | 0.07 | 0.00 | 94 | 1012.5 |
| 20260508070004 | 46 | 354 | 1.0 | 2.0 | 0.00 | 0.07 | 0.00 | 95 | 1012.4 |
| 20260508065004 | 46 | 3 | 1.0 | 4.0 | 0.00 | 0.07 | 0.00 | 95 | 1012.3 |
| 20260508064503 | 46 | 359 | 1.0 | 2.0 | 0.00 | 0.07 | 0.00 | 95 | 1012.1 |
| 20260508064003 | 46 | 1 | 1.0 | 2.0 | 0.00 | 0.08 | 0.00 | 95 | 1012.2 |
| 20260508063503 | 46 | 359 | 0.0 | 2.0 | 0.00 | 0.08 | 0.00 | 95 | 1012.2 |
| 20260508063004 | 46 | 7 | 0.0 | 2.0 | 0.00 | 0.09 | 0.00 | 95 | 1012.2 |
| 20260508062503 | 46 | 349 | 0.0 | 2.0 | 0.00 | 0.09 | 0.00 | 95 | 1012.2 |
| 20260508062003 | 46 | 338 | 0.0 | 2.0 | 0.00 | 0.10 | 0.00 | 95 | 1012.2 |
| 20260508061503 | 46 | 31 | 0.0 | 2.0 | 0.00 | 0.10 | 0.00 | 94 | 1012.2 |
| 20260508061003 | 46 | 63 | 0.0 | 2.0 | 0.00 | 0.10 | 0.00 | 94 | 1012.2 |
| 20260508060503 | 46 | 7 | 0.0 | 2.0 | 0.00 | 0.10 | 0.00 | 94 | 1012.1 |
| 20260508060004 | 45 | 341 | 0.0 | 2.0 | 0.00 | 0.10 | 0.00 | 94 | 1012.1 |
| 20260508055503 | 45 | 354 | 0.0 | 2.0 | 0.00 | 0.10 | 0.00 | 94 | 1012.1 |
| 20260508055004 | 45 | 13 | 0.0 | 2.0 | 0.00 | 0.10 | 0.00 | 94 | 1012.1 |
| 20260508054504 | 45 | 346 | 0.0 | 2.0 | 0.00 | 0.10 | 0.00 | 94 | 1012.1 |
| 20260508054003 | 45 | 349 | 0.0 | 2.0 | 0.00 | 0.10 | 0.00 | 93 | 1012.1 |
| 20260508053505 | 45 | 80 | 0.0 | 2.0 | 0.00 | 0.10 | 0.00 | 93 | 1012.1 |
| 20260508053003 | 45 | 110 | 0.0 | 2.0 | 0.00 | 0.10 | 0.00 | 93 | 1012.2 |
| 20260508052503 | 45 | 108 | 0.0 | 2.0 | 0.00 | 0.10 | 0.00 | 93 | 1012.2 |
| 20260508052003 | 45 | 91 | 0.0 | 2.0 | 0.00 | 0.10 | 0.00 | 93 | 1012.2 |
| 20260508051503 | 45 | 2 | 0.0 | 2.0 | 0.00 | 0.10 | 0.00 | 93 | 1012.2 |
| 20260508051003 | 45 | 58 | 0.0 | 2.0 | 0.00 | 0.10 | 0.00 | 93 | 1012.2 |
| 20260508050503 | 45 | 91 | 0.0 | 2.0 | 0.00 | 0.10 | 0.00 | 93 | 1012.2 |
| 20260508045503 | 46 | 33 | 0.0 | 2.0 | 0.00 | 0.10 | 0.00 | 93 | 1012.2 |
| 20260508045003 | 46 | 10 | 0.0 | 2.0 | 0.00 | 0.10 | 0.00 | 93 | 1012.2 |
| 20260508044504 | 46 | 12 | 0.0 | 2.0 | 0.00 | 0.10 | 0.00 | 93 | 1012.1 |
| 20260508044003 | 46 | 63 | 0.0 | 2.0 | 0.00 | 0.10 | 0.00 | 93 | 1012.1 |
| 20260508043504 | 46 | 105 | 0.0 | 2.0 | 0.00 | 0.10 | 0.00 | 93 | 1012.1 |
| 20260508043003 | 46 | 81 | 0.0 | 2.0 | 0.00 | 0.10 | 0.00 | 92 | 1012.1 |
| 20260508042504 | 46 | 359 | 0.0 | 2.0 | 0.00 | 0.10 | 0.00 | 92 | 1012.0 |
| 20260508042003 | 46 | 8 | 0.0 | 2.0 | 0.00 | 0.10 | 0.00 | 92 | 1012.0 |
| 20260508041504 | 46 | 23 | 0.0 | 2.0 | 0.00 | 0.10 | 0.00 | 92 | 1011.9 |
| 20260508041003 | 46 | 5 | 0.0 | 2.0 | 0.00 | 0.10 | 0.00 | 92 | 1011.9 |
| 20260508040503 | 46 | 9 | 0.0 | 2.0 | 0.00 | 0.10 | 0.00 | 92 | 1012.0 |
| 20260508040003 | 46 | 2 | 0.0 | 2.0 | 0.00 | 0.10 | 0.00 | 92 | 1011.9 |
| 20260508035503 | 46 | 348 | 0.0 | 2.0 | 0.00 | 0.10 | 0.10 | 92 | 1011.8 |
| 20260508035004 | 46 | 358 | 0.0 | 2.0 | 0.00 | 0.10 | 0.10 | 92 | 1011.8 |
| 20260508034503 | 46 | 356 | 0.0 | 2.0 | 0.00 | 0.10 | 0.10 | 92 | 1011.7 |
| 20260508034003 | 47 | 354 | 0.0 | 2.0 | 0.00 | 0.10 | 0.10 | 92 | 1011.6 |
| 20260508033503 | 47 | 6 | 0.0 | 2.0 | 0.00 | 0.10 | 0.10 | 92 | 1011.7 |
| 20260508032503 | 47 | 42 | 0.0 | 2.0 | 0.00 | 0.10 | 0.10 | 92 | 1011.7 |
| 20260508032004 | 47 | 108 | 0.0 | 2.0 | 0.00 | 0.10 | 0.10 | 92 | 1011.7 |
| 20260508031503 | 47 | 39 | 0.0 | 2.0 | 0.00 | 0.10 | 0.10 | 92 | 1011.7 |
| 20260508031003 | 47 | 352 | 0.0 | 2.0 | 0.00 | 0.10 | 0.10 | 92 | 1011.7 |
| 20260508030503 | 47 | 337 | 0.0 | 2.0 | 0.00 | 0.10 | 0.10 | 92 | 1011.8 |
| 20260508030004 | 48 | 11 | 0.0 | 2.0 | 0.00 | 0.10 | 0.10 | 92 | 1011.8 |
| 20260508025503 | 48 | 34 | 0.0 | 2.0 | 0.00 | 0.10 | 0.10 | 92 | 1011.8 |
| 20260508025003 | 48 | 24 | 0.0 | 2.0 | 0.00 | 0.10 | 0.10 | 92 | 1011.8 |
| 20260508024503 | 48 | 349 | 0.0 | 2.0 | 0.00 | 0.10 | 0.10 | 92 | 1011.8 |
| 20260508024003 | 48 | 339 | 0.0 | 2.0 | 0.00 | 0.10 | 0.10 | 92 | 1011.7 |
| 20260508023003 | 48 | 328 | 0.0 | 2.0 | 0.00 | 0.10 | 0.10 | 91 | 1011.8 |
| 20260508022504 | 48 | 325 | 0.0 | 2.0 | 0.00 | 0.10 | 0.10 | 91 | 1011.8 |
| 20260508022003 | 48 | 337 | 0.0 | 2.0 | 0.00 | 0.10 | 0.10 | 91 | 1011.8 |
| 20260508021504 | 48 | 334 | 0.0 | 2.0 | 0.00 | 0.10 | 0.10 | 91 | 1011.9 |
| 20260508021003 | 48 | 317 | 0.0 | 2.0 | 0.00 | 0.10 | 0.10 | 91 | 1011.9 |
| 20260508020503 | 49 | 343 | 0.0 | 2.0 | 0.00 | 0.10 | 0.10 | 90 | 1011.8 |
| 20260508020003 | 49 | 3 | 0.0 | 2.0 | 0.00 | 0.10 | 0.10 | 90 | 1011.7 |
| 20260508015504 | 49 | 358 | 0.0 | 2.0 | 0.00 | 0.10 | 0.10 | 90 | 1011.6 |
| 20260508015004 | 49 | 331 | 0.0 | 2.0 | 0.00 | 0.10 | 0.10 | 90 | 1011.6 |
| 20260508014504 | 50 | 336 | 0.0 | 2.0 | 0.00 | 0.10 | 0.10 | 90 | 1011.5 |
| 20260508013503 | 50 | 359 | 0.0 | 2.0 | 0.00 | 0.10 | 0.10 | 90 | 1011.5 |
| 20260508013004 | 50 | 358 | 0.0 | 2.0 | 0.00 | 0.10 | 0.10 | 90 | 1011.4 |
| 20260508012503 | 50 | 2 | 0.0 | 2.0 | 0.00 | 0.10 | 0.10 | 90 | 1011.4 |
| 20260508012003 | 50 | 357 | 0.0 | 2.0 | 0.00 | 0.10 | 0.10 | 89 | 1011.3 |
| 20260508011003 | 51 | 328 | 0.0 | 2.0 | 0.00 | 0.10 | 0.10 | 89 | 1011.2 |
| 20260508010503 | 51 | 337 | 0.0 | 2.0 | 0.00 | 0.10 | 0.10 | 89 | 1011.1 |
| 20260508010004 | 51 | 335 | 0.0 | 2.0 | 0.00 | 0.10 | 0.10 | 89 | 1011.1 |
| 20260508005003 | 52 | 355 | 0.0 | 2.0 | 0.00 | 0.10 | 0.10 | 89 | 1011.0 |
| 20260508004503 | 52 | 337 | 0.0 | 2.0 | 0.00 | 0.10 | 0.10 | 89 | 1010.9 |
| 20260508004003 | 52 | 312 | 0.0 | 2.0 | 0.00 | 0.10 | 0.10 | 88 | 1011.0 |
| 20260508003003 | 52 | 345 | 0.0 | 2.0 | 0.00 | 0.10 | 0.10 | 88 | 1010.8 |
| 20260508002503 | 52 | 357 | 0.0 | 2.0 | 0.00 | 0.10 | 0.10 | 88 | 1010.7 |
| 20260508002003 | 53 | 333 | 0.0 | 2.0 | 0.00 | 0.10 | 0.10 | 88 | 1010.7 |
| 20260508001503 | 53 | 331 | 0.0 | 2.0 | 0.00 | 0.10 | 0.10 | 87 | 1010.7 |
| 20260508001003 | 53 | 332 | 1.0 | 2.0 | 0.00 | 0.10 | 0.10 | 87 | 1010.6 |
| 20260508000503 | 53 | 324 | 1.0 | 2.0 | 0.00 | 0.10 | 0.10 | 87 | 1010.5 |
| 20260508000003 | 53 | 314 | 1.0 | 2.0 | 0.00 | 0.10 | 0.10 | 87 | 1010.4 |
| 20260507235503 | 53 | 326 | 1.0 | 3.0 | 0.00 | 0.10 | 0.10 | 86 | 1010.2 |
| 20260507235003 | 53 | 336 | 1.0 | 3.0 | 0.00 | 0.10 | 0.10 | 86 | 1010.3 |
| 20260507233504 | 54 | 308 | 1.0 | 2.0 | 0.00 | 0.10 | 0.10 | 86 | 1010.2 |
| 20260507233004 | 54 | 321 | 1.0 | 2.0 | 0.00 | 0.10 | 0.10 | 86 | 1010.2 |
| 20260507232503 | 54 | 353 | 1.0 | 4.0 | 0.00 | 0.10 | 0.10 | 85 | 1010.2 |
| 20260507232004 | 54 | 354 | 1.0 | 4.0 | 0.00 | 0.10 | 0.10 | 85 | 1010.2 |
| 20260507231003 | 54 | 1 | 2.0 | 4.0 | 0.00 | 0.10 | 0.10 | 84 | 1010.1 |
| 20260507230503 | 54 | 1 | 1.0 | 4.0 | 0.00 | 0.10 | 0.10 | 85 | 1010.1 |
| 20260507230003 | 54 | 357 | 1.0 | 4.0 | 0.00 | 0.10 | 0.10 | 86 | 1010.0 |
| 20260507225504 | 54 | 351 | 1.0 | 4.0 | 0.00 | 0.10 | 0.10 | 86 | 1010.2 |
| 20260507225004 | 54 | 324 | 1.0 | 3.0 | 0.00 | 0.10 | 0.10 | 86 | 1010.2 |
| 20260507224504 | 54 | 330 | 1.0 | 3.0 | 0.00 | 0.10 | 0.10 | 84 | 1010.3 |
| 20260507224003 | 54 | 351 | 1.0 | 3.0 | 0.00 | 0.10 | 0.10 | 84 | 1010.2 |
| 20260507223504 | 55 | 356 | 1.0 | 3.0 | 0.00 | 0.10 | 0.10 | 84 | 1010.3 |
| 20260507223003 | 55 | 352 | 1.0 | 5.0 | 0.00 | 0.10 | 0.10 | 86 | 1010.2 |
| 20260507222503 | 55 | 346 | 1.0 | 5.0 | 0.00 | 0.10 | 0.10 | 88 | 1010.3 |
| 20260507222004 | 55 | 357 | 2.0 | 6.0 | 0.00 | 0.10 | 0.10 | 88 | 1010.5 |
| 20260507221503 | 55 | 359 | 2.0 | 6.0 | 0.00 | 0.10 | 0.10 | 87 | 1010.4 |
| 20260507221004 | 55 | 341 | 1.0 | 3.0 | 0.00 | 0.10 | 0.10 | 88 | 1010.4 |
| 20260507220504 | 54 | 349 | 1.0 | 5.0 | 0.00 | 0.10 | 0.10 | 88 | 1010.5 |
| 20260507220004 | 54 | 340 | 1.0 | 5.0 | 0.00 | 0.10 | 0.10 | 87 | 1010.6 |
| 20260507214503 | 54 | 30 | 1.0 | 2.0 | 0.01 | 0.10 | 0.10 | 89 | 1010.3 |
| 20260507214004 | 54 | 101 | 1.0 | 2.0 | 0.01 | 0.10 | 0.10 | 88 | 1010.0 |
| 20260507213004 | 54 | 49 | 1.0 | 3.0 | 0.01 | 0.10 | 0.10 | 86 | 1010.2 |
| 20260507212503 | 54 | 14 | 1.0 | 4.0 | 0.02 | 0.10 | 0.10 | 87 | 1010.3 |
| 20260507212004 | 54 | 344 | 1.0 | 4.0 | 0.02 | 0.10 | 0.10 | 87 | 1010.6 |
| 20260507211503 | 54 | 331 | 1.0 | 2.0 | 0.02 | 0.10 | 0.10 | 89 | 1011.0 |
| 20260507210504 | 54 | 334 | 1.0 | 2.0 | 0.02 | 0.10 | 0.10 | 88 | 1010.5 |
| 20260507205504 | 54 | 15 | 0.0 | 2.0 | 0.02 | 0.09 | 0.09 | 87 | 1009.9 |
| 20260507205003 | 54 | 342 | 0.0 | 2.0 | 0.03 | 0.09 | 0.09 | 86 | 1010.3 |
| 20260507204503 | 55 | 342 | 0.0 | 2.0 | 0.03 | 0.09 | 0.09 | 86 | 1010.3 |
| 20260507204003 | 55 | 331 | 0.0 | 2.0 | 0.03 | 0.09 | 0.09 | 86 | 1010.3 |
| 20260507203504 | 55 | 317 | 0.0 | 2.0 | 0.03 | 0.09 | 0.09 | 86 | 1010.5 |
| 20260507203003 | 55 | 324 | 0.0 | 1.0 | 0.03 | 0.09 | 0.09 | 85 | 1010.3 |
| 20260507202503 | 55 | 352 | 0.0 | 2.0 | 0.02 | 0.08 | 0.08 | 85 | 1010.3 |
| 20260507202003 | 55 | 25 | 0.0 | 2.0 | 0.03 | 0.08 | 0.08 | 85 | 1010.1 |
| 20260507201504 | 55 | 340 | 1.0 | 2.0 | 0.03 | 0.08 | 0.08 | 85 | 1010.5 |
| 20260507201003 | 55 | 311 | 0.0 | 2.0 | 0.04 | 0.08 | 0.08 | 86 | 1010.5 |
| 20260507200504 | 55 | 310 | 0.0 | 2.0 | 0.04 | 0.08 | 0.08 | 84 | 1010.4 |
| 20260507200003 | 55 | 22 | 1.0 | 3.0 | 0.04 | 0.07 | 0.07 | 83 | 1010.2 |
| 20260507195504 | 55 | 19 | 1.0 | 3.0 | 0.04 | 0.07 | 0.07 | 80 | 1010.1 |
| 20260507195003 | 56 | 12 | 0.0 | 2.0 | 0.03 | 0.06 | 0.06 | 81 | 1010.2 |
| 20260507194004 | 56 | 22 | 0.0 | 2.0 | 0.03 | 0.06 | 0.06 | 80 | 1010.3 |
| 20260507193504 | 56 | 61 | 0.0 | 2.0 | 0.03 | 0.06 | 0.06 | 78 | 1010.3 |
| 20260507193004 | 56 | 82 | 0.0 | 2.0 | 0.03 | 0.06 | 0.06 | 82 | 1010.4 |
| 20260507192504 | 57 | 96 | 0.0 | 2.0 | 0.03 | 0.06 | 0.06 | 80 | 1010.3 |
| 20260507192004 | 57 | 95 | 1.0 | 2.0 | 0.02 | 0.05 | 0.05 | 80 | 1010.4 |
| 20260507191503 | 57 | 81 | 1.0 | 2.0 | 0.02 | 0.05 | 0.05 | 78 | 1010.4 |
| 20260507191004 | 57 | 25 | 1.0 | 4.0 | 0.01 | 0.04 | 0.04 | 73 | 1010.5 |
| 20260507185503 | 57 | 2 | 2.0 | 7.0 | 0.00 | 0.03 | 0.03 | 71 | 1010.7 |
| 20260507185004 | 57 | 4 | 3.0 | 7.0 | 0.00 | 0.03 | 0.03 | 70 | 1010.5 |
| 20260507184004 | 57 | 6 | 2.0 | 5.0 | 0.00 | 0.03 | 0.03 | 73 | 1010.8 |
| 20260507183003 | 58 | 21 | 1.0 | 3.0 | 0.00 | 0.03 | 0.03 | 69 | 1011.2 |
| 20260507181503 | 59 | 9 | 2.0 | 5.0 | 0.00 | 0.03 | 0.03 | 66 | 1011.5 |
| 20260507181003 | 59 | 13 | 2.0 | 6.0 | 0.00 | 0.03 | 0.03 | 63 | 1011.3 |
| 20260507180503 | 59 | 11 | 2.0 | 8.0 | 0.00 | 0.03 | 0.03 | 58 | 1011.4 |
| 20260507180005 | 60 | 359 | 2.0 | 8.0 | 0.00 | 0.03 | 0.03 | 58 | 1011.4 |
| 20260507175503 | 60 | 1 | 3.0 | 9.0 | 0.00 | 0.03 | 0.03 | 56 | 1011.3 |
| 20260507175003 | 60 | 7 | 3.0 | 9.0 | 0.00 | 0.03 | 0.03 | 56 | 1011.2 |
| 20260507174003 | 60 | 37 | 1.0 | 4.0 | 0.00 | 0.03 | 0.03 | 56 | 1011.1 |
| 20260507173503 | 60 | 18 | 2.0 | 6.0 | 0.00 | 0.03 | 0.03 | 56 | 1011.2 |
| 20260507173004 | 60 | 25 | 2.0 | 6.0 | 0.00 | 0.03 | 0.03 | 55 | 1011.1 |
| 20260507172504 | 60 | 33 | 2.0 | 7.0 | 0.00 | 0.03 | 0.03 | 58 | 1011.2 |
| 20260507172004 | 60 | 31 | 2.0 | 7.0 | 0.00 | 0.03 | 0.03 | 56 | 1011.3 |
| 20260507171503 | 60 | 20 | 2.0 | 7.0 | 0.00 | 0.03 | 0.03 | 57 | 1011.4 |
| 20260507171003 | 60 | 22 | 2.0 | 7.0 | 0.00 | 0.03 | 0.03 | 56 | 1011.3 |
| 20260507170003 | 60 | 13 | 2.0 | 7.0 | 0.00 | 0.03 | 0.03 | 58 | 1011.5 |
| 20260507165504 | 60 | 4 | 3.0 | 7.0 | 0.00 | 0.03 | 0.03 | 57 | 1011.6 |
| 20260507165003 | 60 | 8 | 2.0 | 7.0 | 0.00 | 0.04 | 0.03 | 59 | 1011.7 |
| 20260507164504 | 60 | 16 | 2.0 | 7.0 | 0.00 | 0.04 | 0.03 | 60 | 1011.8 |
| 20260507164003 | 59 | 7 | 2.0 | 6.0 | 0.00 | 0.04 | 0.03 | 60 | 1011.6 |
| 20260507163503 | 59 | 1 | 3.0 | 9.0 | 0.00 | 0.04 | 0.03 | 61 | 1012.0 |
| 20260507163004 | 59 | 1 | 4.0 | 9.0 | 0.00 | 0.04 | 0.03 | 58 | 1012.0 |
| 20260507162004 | 59 | 18 | 2.0 | 5.0 | 0.00 | 0.04 | 0.03 | 62 | 1012.3 |
| 20260507161503 | 59 | 15 | 3.0 | 8.0 | 0.00 | 0.04 | 0.03 | 63 | 1012.3 |
| 20260507161003 | 59 | 18 | 3.0 | 9.0 | 0.00 | 0.04 | 0.03 | 63 | 1012.1 |
| 20260507160503 | 59 | 14 | 4.0 | 9.0 | 0.00 | 0.05 | 0.03 | 64 | 1012.1 |
| 20260507160003 | 59 | 8 | 4.0 | 9.0 | 0.00 | 0.05 | 0.03 | 63 | 1012.4 |
| 20260507155503 | 59 | 10 | 3.0 | 9.0 | 0.00 | 0.05 | 0.03 | 63 | 1012.4 |
| 20260507155003 | 59 | 7 | 3.0 | 9.0 | 0.00 | 0.05 | 0.03 | 64 | 1012.3 |
| 20260507154504 | 59 | 3 | 3.0 | 9.0 | 0.00 | 0.05 | 0.03 | 66 | 1012.5 |
| 20260507153504 | 59 | 5 | 3.0 | 7.0 | 0.00 | 0.05 | 0.03 | 66 | 1012.6 |
| 20260507153003 | 59 | 12 | 3.0 | 7.0 | 0.00 | 0.05 | 0.03 | 67 | 1012.6 |
| 20260507152503 | 59 | 9 | 3.0 | 7.0 | 0.00 | 0.05 | 0.03 | 66 | 1012.8 |
| 20260507152003 | 59 | 2 | 3.0 | 9.0 | 0.00 | 0.05 | 0.03 | 68 | 1012.7 |
| 20260507151504 | 58 | 3 | 4.0 | 9.0 | 0.00 | 0.05 | 0.03 | 68 | 1012.7 |
| 20260507151003 | 58 | 6 | 4.0 | 10.0 | 0.00 | 0.05 | 0.03 | 67 | 1012.7 |
| 20260507150503 | 58 | 9 | 3.0 | 10.0 | 0.00 | 0.05 | 0.03 | 66 | 1012.7 |
| 20260507150004 | 58 | 14 | 4.0 | 10.0 | 0.00 | 0.05 | 0.03 | 65 | 1012.9 |
| 20260507145503 | 58 | 13 | 5.0 | 13.0 | 0.00 | 0.05 | 0.03 | 65 | 1012.9 |
| 20260507145003 | 58 | 14 | 5.0 | 13.0 | 0.00 | 0.05 | 0.03 | 65 | 1012.9 |
| 20260507144004 | 58 | 15 | 4.0 | 12.0 | 0.00 | 0.05 | 0.03 | 67 | 1012.9 |
| 20260507143503 | 58 | 8 | 4.0 | 11.0 | 0.00 | 0.05 | 0.03 | 70 | 1012.9 |
| 20260507143003 | 58 | 8 | 4.0 | 11.0 | 0.00 | 0.05 | 0.03 | 69 | 1013.0 |
| 20260507142504 | 58 | 11 | 5.0 | 11.0 | 0.00 | 0.05 | 0.03 | 71 | 1013.0 |
| 20260507142003 | 58 | 6 | 6.0 | 12.0 | 0.00 | 0.05 | 0.03 | 70 | 1012.8 |
| 20260507141503 | 58 | 3 | 5.0 | 12.0 | 0.00 | 0.05 | 0.03 | 71 | 1012.8 |
| 20260507140503 | 57 | 8 | 4.0 | 11.0 | 0.00 | 0.05 | 0.03 | 74 | 1012.9 |
| 20260507140004 | 57 | 3 | 5.0 | 11.0 | 0.00 | 0.05 | 0.03 | 73 | 1013.1 |
| 20260507135503 | 57 | 4 | 4.0 | 13.0 | 0.00 | 0.05 | 0.03 | 74 | 1013.1 |
| 20260507135003 | 57 | 5 | 4.0 | 13.0 | 0.00 | 0.05 | 0.03 | 73 | 1013.0 |
| 20260507134504 | 57 | 4 | 4.0 | 10.0 | 0.00 | 0.05 | 0.03 | 75 | 1013.1 |
| 20260507134003 | 57 | 4 | 3.0 | 10.0 | 0.00 | 0.05 | 0.03 | 75 | 1013.0 |
| 20260507133503 | 57 | 6 | 3.0 | 8.0 | 0.00 | 0.05 | 0.03 | 77 | 1013.2 |
| 20260507133003 | 57 | 6 | 3.0 | 8.0 | 0.00 | 0.05 | 0.03 | 79 | 1012.9 |
| 20260507132503 | 56 | 3 | 3.0 | 9.0 | 0.00 | 0.05 | 0.03 | 79 | 1012.7 |
| 20260507132004 | 56 | 2 | 2.0 | 9.0 | 0.00 | 0.05 | 0.03 | 79 | 1012.9 |
| 20260507131503 | 56 | 5 | 2.0 | 6.0 | 0.00 | 0.05 | 0.03 | 79 | 1012.8 |
| 20260507131003 | 56 | 3 | 3.0 | 6.0 | 0.00 | 0.05 | 0.03 | 80 | 1012.9 |
| 20260507130503 | 56 | 6 | 3.0 | 7.0 | 0.00 | 0.05 | 0.03 | 79 | 1012.8 |
| 20260507130004 | 56 | 7 | 3.0 | 7.0 | 0.00 | 0.05 | 0.03 | 79 | 1012.7 |
| 20260507125503 | 56 | 4 | 3.0 | 7.0 | 0.00 | 0.05 | 0.03 | 79 | 1012.5 |
| 20260507125004 | 56 | 7 | 2.0 | 6.0 | 0.00 | 0.05 | 0.03 | 79 | 1012.8 |
| 20260507124005 | 56 | 3 | 3.0 | 7.0 | 0.00 | 0.05 | 0.03 | 79 | 1012.9 |
| 20260507123503 | 56 | 2 | 3.0 | 7.0 | 0.00 | 0.05 | 0.03 | 79 | 1012.9 |
| 20260507123004 | 56 | 359 | 3.0 | 7.0 | 0.00 | 0.05 | 0.03 | 79 | 1013.0 |
| 20260507122503 | 56 | 2 | 3.0 | 7.0 | 0.00 | 0.05 | 0.03 | 80 | 1012.9 |
| 20260507122003 | 55 | 11 | 2.0 | 7.0 | 0.00 | 0.05 | 0.03 | 79 | 1012.9 |
| 20260507121504 | 55 | 31 | 1.0 | 4.0 | 0.00 | 0.05 | 0.03 | 80 | 1012.7 |
| 20260507121003 | 55 | 16 | 2.0 | 7.0 | 0.00 | 0.05 | 0.03 | 80 | 1012.8 |
| 20260507120503 | 55 | 18 | 2.0 | 7.0 | 0.00 | 0.05 | 0.03 | 79 | 1012.7 |
| 20260507115503 | 55 | 14 | 1.0 | 5.0 | 0.00 | 0.05 | 0.03 | 80 | 1012.9 |
| 20260507115003 | 55 | 16 | 2.0 | 6.0 | 0.00 | 0.05 | 0.03 | 79 | 1012.8 |
| 20260507114504 | 55 | 14 | 2.0 | 6.0 | 0.00 | 0.05 | 0.03 | 78 | 1012.8 |
| 20260507114003 | 55 | 15 | 2.0 | 8.0 | 0.00 | 0.05 | 0.03 | 78 | 1013.0 |
| 20260507113004 | 55 | 8 | 3.0 | 7.0 | 0.00 | 0.05 | 0.03 | 77 | 1013.0 |
| 20260507112503 | 55 | 7 | 3.0 | 7.0 | 0.00 | 0.05 | 0.03 | 76 | 1012.9 |
| 20260507112004 | 55 | 8 | 3.0 | 10.0 | 0.00 | 0.05 | 0.03 | 76 | 1012.8 |
| 20260507111504 | 55 | 3 | 4.0 | 13.0 | 0.00 | 0.05 | 0.03 | 79 | 1012.4 |
| 20260507111003 | 55 | 2 | 4.0 | 13.0 | 0.00 | 0.05 | 0.03 | 82 | 1012.6 |
| 20260507110503 | 55 | 3 | 4.0 | 11.0 | 0.00 | 0.05 | 0.03 | 83 | 1012.1 |
| 20260507110004 | 55 | 3 | 4.0 | 9.0 | 0.00 | 0.05 | 0.03 | 83 | 1012.0 |
| 20260507105004 | 55 | 2 | 2.0 | 6.0 | 0.00 | 0.05 | 0.03 | 84 | 1012.1 |
| 20260507104504 | 55 | 2 | 2.0 | 7.0 | 0.00 | 0.05 | 0.03 | 84 | 1012.4 |
| 20260507104004 | 55 | 2 | 3.0 | 7.0 | 0.00 | 0.05 | 0.03 | 84 | 1012.1 |
| 20260507103503 | 55 | 2 | 4.0 | 9.0 | 0.00 | 0.05 | 0.03 | 83 | 1012.0 |
| 20260507103004 | 55 | 1 | 4.0 | 9.0 | 0.00 | 0.05 | 0.03 | 83 | 1012.0 |
| 20260507102004 | 56 | 1 | 2.0 | 6.0 | 0.00 | 0.05 | 0.03 | 85 | 1012.0 |
| 20260507101503 | 56 | 359 | 3.0 | 6.0 | 0.00 | 0.05 | 0.03 | 85 | 1011.9 |
| 20260507101003 | 56 | 358 | 3.0 | 8.0 | 0.00 | 0.05 | 0.03 | 85 | 1012.0 |
| 20260507100505 | 56 | 3 | 3.0 | 8.0 | 0.00 | 0.05 | 0.03 | 85 | 1011.8 |
| 20260507100003 | 56 | 4 | 2.0 | 8.0 | 0.00 | 0.05 | 0.03 | 85 | 1011.6 |
| 20260507095504 | 56 | 357 | 2.0 | 8.0 | 0.00 | 0.05 | 0.03 | 85 | 1011.7 |
| 20260507094503 | 56 | 359 | 3.0 | 7.0 | 0.00 | 0.05 | 0.03 | 85 | 1012.0 |
| 20260507094003 | 56 | 359 | 3.0 | 7.0 | 0.00 | 0.05 | 0.03 | 84 | 1011.9 |
| 20260507093504 | 56 | 1 | 4.0 | 8.0 | 0.00 | 0.05 | 0.03 | 84 | 1011.8 |
| 20260507093003 | 56 | 3 | 4.0 | 9.0 | 0.00 | 0.05 | 0.03 | 84 | 1011.8 |
| 20260507092504 | 56 | 2 | 5.0 | 10.0 | 0.00 | 0.05 | 0.03 | 84 | 1011.9 |
| 20260507092003 | 56 | 1 | 4.0 | 10.0 | 0.00 | 0.05 | 0.03 | 84 | 1011.7 |
| 20260507091503 | 56 | 1 | 3.0 | 10.0 | 0.00 | 0.05 | 0.03 | 84 | 1011.5 |
| 20260507091004 | 56 | 2 | 4.0 | 11.0 | 0.00 | 0.05 | 0.03 | 85 | 1011.5 |
| 20260507090503 | 56 | 4 | 4.0 | 11.0 | 0.00 | 0.05 | 0.03 | 85 | 1011.5 |
| 20260507090004 | 56 | 2 | 5.0 | 11.0 | 0.00 | 0.05 | 0.03 | 85 | 1011.5 |
| 20260507085503 | 56 | 1 | 4.0 | 11.0 | 0.00 | 0.05 | 0.03 | 85 | 1011.2 |
| 20260507085003 | 57 | 6 | 3.0 | 6.0 | 0.00 | 0.05 | 0.03 | 86 | 1011.3 |
| 20260507084503 | 57 | 4 | 3.0 | 6.0 | 0.00 | 0.05 | 0.03 | 86 | 1011.3 |
| 20260507084003 | 57 | 3 | 3.0 | 7.0 | 0.00 | 0.05 | 0.03 | 86 | 1011.2 |
| 20260507083503 | 57 | 4 | 4.0 | 10.0 | 0.00 | 0.05 | 0.03 | 86 | 1011.1 |
| 20260507083004 | 57 | 3 | 5.0 | 14.0 | 0.00 | 0.05 | 0.03 | 86 | 1011.0 |
| 20260507082503 | 57 | 3 | 7.0 | 17.0 | 0.00 | 0.05 | 0.03 | 85 | 1011.0 |
| 20260507082003 | 58 | 2 | 7.0 | 17.0 | 0.00 | 0.05 | 0.03 | 85 | 1011.2 |
| 20260507081504 | 58 | 1 | 7.0 | 19.0 | 0.00 | 0.05 | 0.03 | 86 | 1011.2 |